[[{"header":{"parameterUnit":"m.s-1","parameterCategory":1,"la1":30.2991,"la2":30.254,"lo1":-89.0895,"lo2":-89.0444,"dy":0.0017,"dx":0.0017,"nx":28,"ny":28,"refTime":"2025-03-07T09:00:00:Z","depth":0,"parameterNumber":2,"parameterNumberName":"U-component_of_WINDS"},"data":[0,0,0,0,0,0,0,0,0,0,0,0,0,0,0,0,0,0,0,0,0,0,0,0,0,0,0,0,0,0,0,0,0,0,0,0,0,0,0,0,0,0,0,0,0,0,0,0,0,0,0,0,0,0,0,0,0,0,-0.928,-0.9279,0,-0.9165,-0.9164,-0.9162,-0.9093,-0.9093,-0.9093,-0.9093,-0.8973,-0.897,-0.8967,0,0,0,0,0,0,0,0,0,0,0,0,0,-0.9435,-0.9433,-0.928,-0.9279,-0.9277,-0.9165,-0.9164,-0.9162,-0.9094,-0.9093,-0.9093,-0.9092,-0.8974,-0.897,-0.8967,0,0,0,0,0,0,0,0,0,0,0,0,0,-0.9349,-0.9432,-0.928,-0.923,-0.9224,-0.9165,-0.9164,-0.9162,-0.9094,-0.9093,-0.9093,-0.9092,-0.8975,-0.8971,-0.8966,-0.8949,0,0,-0.8953,-0.8951,0,0,0,0,0,0,0,0,-0.9354,-0.9343,-0.9238,-0.9233,-0.9226,-0.9143,-0.9174,-0.909,-0.9094,-0.9143,-0.9093,-0.9092,-0.903,-0.9021,-0.9,-0.8943,-0.8938,-0.8953,-0.895,-0.8948,-0.8947,0,0,0,0,0,0,0,-0.936,-0.9348,-0.9234,-0.9237,-0.923,-0.9211,-0.9198,-0.9158,-0.909,-0.9139,-0.9133,-0.9121,-0.9026,-0.9004,-0.8997,-0.8936,-0.8953,-0.8949,-0.8946,-0.8944,-0.8854,-0.8854,0,0,0,0,0,0,-0.9375,-0.9353,-0.9238,-0.9231,-0.929,-0.9208,-0.9194,-0.917,-0.9091,-0.9078,-0.9121,-0.9118,-0.9012,-0.9002,-0.8992,-0.8963,-0.8948,-0.8944,-0.8941,-0.8853,-0.8854,-0.8854,0,0,0,0,0,0,-0.9378,-0.9365,-0.9243,-0.9291,-0.9274,-0.9206,-0.918,-0.9168,-0.9146,-0.9077,-0.9065,-0.9112,-0.9011,-0.8998,-0.8959,-0.8958,-0.8942,-0.8938,-0.8853,-0.8854,-0.8854,-0.8908,0,0,0,0,0,0,-0.9383,-0.9367,-0.9361,-0.9291,-0.9271,-0.9213,-0.918,-0.9166,-0.9139,-0.9134,-0.9065,-0.9053,-0.901,-0.8966,-0.8955,-0.8952,-0.8935,-0.8853,-0.8853,-0.8854,-0.8906,-0.891,-0.8914,0,0,0,0,0,-0.9389,-0.9381,-0.9361,-0.9348,-0.9263,-0.9214,-0.9202,-0.9153,-0.914,-0.9132,-0.9087,-0.9056,-0.896,-0.8963,-0.8949,-0.8945,-0.8853,-0.8853,-0.8854,-0.8904,-0.8909,-0.8913,0,0,0,0,0,0,-0.9454,-0.9372,-0.9348,-0.9318,-0.9273,-0.9202,-0.9191,-0.9161,-0.9118,-0.9115,-0.9055,-0.904,-0.9006,-0.8971,-0.8975,-0.8922,-0.8903,-0.8901,-0.8946,-0.895,-0.8954,-0.8962,-0.8931,0,0,0,0,0,-0.9464,-0.9432,-0.9362,-0.9342,-0.932,-0.926,-0.9237,-0.9202,-0.9153,-0.9134,-0.9086,-0.9039,-0.8997,-0.8972,-0.893,-0.89,-0.8882,-0.8891,-0.8894,-0.8898,-0.8897,-0.8874,-0.8876,-0.8855,-0.8855,-0.8855,0,0,-0.9486,-0.9437,-0.9421,-0.9353,-0.9315,-0.9281,-0.9245,-0.9211,-0.9185,-0.9128,-0.9088,-0.9051,-0.8993,-0.8958,-0.894,-0.8928,-0.8898,-0.8898,-0.8902,-0.8898,-0.8875,-0.8877,-0.8879,-0.8856,-0.8856,-0.8856,0,0,-0.9509,-0.947,-0.9447,-0.9408,-0.9349,-0.9308,-0.9303,-0.9235,-0.9208,-0.9167,-0.9122,-0.9089,-0.9021,-0.8981,-0.8951,-0.8953,-0.8922,-0.8942,-0.8962,-0.894,-0.8942,-0.8943,-0.8941,-0.8942,-0.8941,-0.8941,-0.8941,0,-0.9543,-0.9492,-0.9439,-0.9407,-0.9377,-0.9324,-0.9299,-0.9264,-0.9195,-0.9174,-0.9162,-0.9072,-0.903,-0.8982,-0.8983,-0.8962,-0.8951,-0.8949,-0.8946,-0.8947,-0.8947,-0.8945,-0.8944,-0.8943,-0.8943,-0.8943,-0.8942,0,-0.9535,-0.95,-0.9488,-0.9422,-0.9391,-0.9363,-0.9304,-0.9278,-0.9245,-0.9205,-0.9161,-0.9108,-0.9053,-0.9039,-0.9008,-0.8985,-0.898,-0.8958,-0.8938,-0.8953,-0.8949,-0.8948,-0.8947,-0.8946,-0.8945,-0.8945,0,0,-0.9597,-0.95,-0.9496,-0.9464,-0.9393,-0.9364,-0.9332,-0.9278,-0.9256,-0.9209,-0.9178,-0.9119,-0.9097,-0.9064,-0.9027,-0.9008,-0.9009,-0.8988,-0.8986,-0.8992,-0.8978,-0.8994,-0.8994,-0.8988,-0.8988,-0.8987,-0.8982,0,-0.9608,-0.9549,-0.9498,-0.9457,-0.9421,-0.9368,-0.9339,-0.9291,-0.9252,-0.9214,-0.917,-0.9128,-0.9104,-0.9083,-0.9062,-0.9014,-0.9006,-0.9014,-0.8957,-0.8955,-0.8972,-0.8993,-0.9011,-0.9009,-0.8981,-0.8981,-0.898,0,-0.9613,-0.9567,-0.9522,-0.9451,-0.9434,-0.941,-0.9354,-0.932,-0.9263,-0.9235,-0.9196,-0.9156,-0.9117,-0.91,-0.9043,-0.9049,-0.9022,-0.8995,-0.8993,-0.8986,-0.8969,-0.8984,-0.9007,-0.9007,-0.8978,-0.8978,-0.8979,0,-0.966,-0.9587,-0.9549,-0.9523,-0.9441,-0.9424,-0.9388,-0.9331,-0.9301,-0.9252,-0.9231,-0.9178,-0.9149,-0.9107,-0.9053,-0.9046,-0.9,-0.898,-0.8974,-0.8975,-0.8967,-0.8968,-0.8984,-0.8952,-0.8952,-0.8952,-0.8952,0,-0.9676,-0.965,-0.9568,-0.9545,-0.9513,-0.9454,-0.9423,-0.9383,-0.9332,-0.9298,-0.9249,-0.9218,-0.9148,-0.9108,-0.9065,-0.9022,-0.901,-0.8985,-0.8973,-0.8988,-0.8991,-0.897,-0.8968,-0.8951,-0.8951,-0.8951,-0.8951,0,-0.9723,-0.9668,-0.9623,-0.9548,-0.9528,-0.9507,-0.9441,-0.9415,-0.9372,-0.9329,-0.9316,-0.9247,-0.9196,-0.9138,-0.9069,-0.904,-0.9,-0.8984,-0.9019,-0.9012,-0.9009,-0.9009,-0.9012,-0.9008,-0.8979,-0.898,-0.898,0,-0.9737,-0.9715,-0.9637,-0.9611,-0.9576,-0.9536,-0.9503,-0.9444,-0.9412,-0.9343,-0.9325,-0.9271,-0.9224,-0.9146,-0.9088,-0.9034,-0.9015,-0.9019,-0.9007,-0.9021,-0.9013,-0.9014,-0.901,-0.9023,-0.9024,-0.9024,-0.9025,0,-0.9766,-0.9739,-0.9696,-0.9641,-0.9605,-0.9559,-0.9511,-0.9492,-0.9422,-0.9388,-0.9336,-0.93,-0.9228,-0.9174,-0.9112,-0.9072,-0.9036,-0.9029,-0.9024,-0.9039,-0.906,-0.9046,-0.9027,-0.9029,-0.9029,-0.9029,-0.9028,-0.9028,-0.9795,-0.9772,-0.9712,-0.9664,-0.9622,-0.9578,-0.9548,-0.95,-0.9456,-0.9393,-0.936,-0.9307,-0.9247,-0.9159,-0.9121,-0.9078,-0.9066,-0.906,-0.9058,-0.9057,-0.906,-0.9067,-0.9066,-0.9066,-0.9066,-0.9066,-0.9066,0,-0.982,-0.9778,-0.9735,-0.9669,-0.963,-0.9599,-0.9544,-0.9513,-0.9468,-0.9415,-0.937,-0.9307,-0.9254,-0.9191,-0.9132,-0.9109,-0.9091,-0.9096,-0.9096,-0.9087,-0.9075,-0.9084,-0.9111,-0.9111,-0.9111,-0.9111,-0.9111,-0.9111,-0.9828,-0.9786,-0.9752,-0.9687,-0.9645,-0.9593,-0.9564,-0.9521,-0.9479,-0.9412,-0.9367,-0.9326,-0.9268,-0.9204,-0.9152,-0.9135,-0.9115,-0.9125,-0.9102,-0.9092,-0.9088,-0.9085,-0.9093,-0.9121,-0.9121,-0.9117,-0.9117,-0.9117]},{"header":{"parameterUnit":"m.s-1","parameterCategory":1,"la1":30.2991,"la2":30.254,"lo1":-89.0895,"lo2":-89.0444,"dy":0.0017,"dx":0.0017,"nx":28,"ny":28,"refTime":"2025-03-07T09:00:00:Z","depth":0,"parameterNumber":3,"parameterNumberName":"V-component_of_WINDS"},"data":[0,0,0,0,0,0,0,0,0,0,0,0,0,0,0,0,0,0,0,0,0,0,0,0,0,0,0,0,0,0,0,0,0,0,0,0,0,0,0,0,0,0,0,0,0,0,0,0,0,0,0,0,0,0,0,0,0,0,-0.1481,-0.1481,0,-0.146,-0.1459,-0.1459,-0.1454,-0.1454,-0.1454,-0.1455,-0.1432,-0.1431,-0.1431,0,0,0,0,0,0,0,0,0,0,0,0,0,-0.1518,-0.1517,-0.1481,-0.1481,-0.1481,-0.146,-0.1459,-0.1459,-0.1454,-0.1454,-0.1455,-0.1455,-0.1432,-0.1431,-0.1431,0,0,0,0,0,0,0,0,0,0,0,0,0,-0.15,-0.1517,-0.1481,-0.1476,-0.1475,-0.146,-0.1459,-0.1459,-0.1454,-0.1454,-0.1455,-0.1455,-0.1433,-0.1432,-0.143,-0.1419,0,0,-0.1427,-0.1427,0,0,0,0,0,0,0,0,-0.1501,-0.1498,-0.1477,-0.1476,-0.1475,-0.146,-0.1464,-0.1446,-0.1454,-0.1462,-0.1455,-0.1455,-0.1441,-0.1439,-0.1435,-0.1418,-0.1417,-0.1427,-0.1426,-0.1426,-0.1426,0,0,0,0,0,0,0,-0.1502,-0.1499,-0.1473,-0.1477,-0.1476,-0.1474,-0.1472,-0.1461,-0.1451,-0.1461,-0.1461,-0.1458,-0.1441,-0.1436,-0.1434,-0.1417,-0.1427,-0.1426,-0.1425,-0.1425,-0.1389,-0.1389,0,0,0,0,0,0,-0.1504,-0.15,-0.1473,-0.1472,-0.1489,-0.1473,-0.1471,-0.1465,-0.1451,-0.1449,-0.1458,-0.1458,-0.1438,-0.1436,-0.1433,-0.1419,-0.1426,-0.1425,-0.1424,-0.139,-0.1389,-0.1389,0,0,0,0,0,0,-0.1505,-0.1502,-0.1474,-0.1486,-0.1483,-0.1473,-0.1466,-0.1464,-0.1459,-0.1448,-0.1447,-0.1455,-0.1438,-0.1435,-0.1423,-0.1418,-0.1424,-0.1423,-0.139,-0.139,-0.1389,-0.139,0,0,0,0,0,0,-0.1506,-0.1502,-0.1498,-0.1486,-0.1482,-0.1464,-0.1465,-0.1463,-0.1457,-0.1457,-0.1445,-0.1443,-0.1438,-0.1424,-0.1422,-0.1417,-0.1422,-0.139,-0.139,-0.1389,-0.139,-0.1389,-0.1389,0,0,0,0,0,-0.1508,-0.1499,-0.1498,-0.1495,-0.1476,-0.1464,-0.1461,-0.1455,-0.1457,-0.1452,-0.1445,-0.1444,-0.1419,-0.1423,-0.142,-0.1415,-0.1391,-0.139,-0.1389,-0.139,-0.139,-0.1389,0,0,0,0,0,0,-0.151,-0.1497,-0.1496,-0.1483,-0.1475,-0.1463,-0.1457,-0.1455,-0.1445,-0.1446,-0.1439,-0.1436,-0.1424,-0.1418,-0.1423,-0.1403,-0.1405,-0.1404,-0.1407,-0.1406,-0.1405,-0.1407,-0.1422,0,0,0,0,0,-0.151,-0.1501,-0.149,-0.148,-0.1476,-0.1467,-0.1461,-0.1458,-0.1448,-0.1445,-0.1437,-0.1428,-0.1418,-0.1412,-0.1402,-0.139,-0.1387,-0.1384,-0.1384,-0.1383,-0.1382,-0.1374,-0.1373,-0.1387,-0.1387,-0.1387,0,0,-0.1508,-0.15,-0.1494,-0.148,-0.1473,-0.1464,-0.1464,-0.1454,-0.1447,-0.1443,-0.1431,-0.1425,-0.1414,-0.1402,-0.1396,-0.1396,-0.1378,-0.1382,-0.1382,-0.1381,-0.1374,-0.1372,-0.1371,-0.1386,-0.1387,-0.1387,0,0,-0.15,-0.1493,-0.1484,-0.1477,-0.1466,-0.146,-0.1458,-0.1447,-0.1442,-0.143,-0.1427,-0.1418,-0.1402,-0.1394,-0.1388,-0.1378,-0.1375,-0.1375,-0.1371,-0.1364,-0.1363,-0.1362,-0.1357,-0.1356,-0.1374,-0.1374,-0.1374,0,-0.1499,-0.1485,-0.1479,-0.1469,-0.1463,-0.1459,-0.1449,-0.1443,-0.143,-0.1425,-0.1426,-0.1405,-0.1398,-0.1383,-0.1381,-0.1376,-0.1373,-0.1376,-0.1363,-0.1362,-0.1361,-0.1357,-0.1355,-0.1374,-0.1374,-0.1374,-0.1374,0,-0.1484,-0.1474,-0.1468,-0.1455,-0.1448,-0.1439,-0.1431,-0.1425,-0.1422,-0.1416,-0.1403,-0.1395,-0.1383,-0.1379,-0.1376,-0.1364,-0.1365,-0.1365,-0.1367,-0.136,-0.1356,-0.1354,-0.1374,-0.1374,-0.1374,-0.1374,0,0,-0.1477,-0.1461,-0.1459,-0.1453,-0.1441,-0.1433,-0.1423,-0.1412,-0.1406,-0.1397,-0.1389,-0.1375,-0.1375,-0.1368,-0.1364,-0.1358,-0.1349,-0.1358,-0.1358,-0.1356,-0.1334,-0.1334,-0.1332,-0.1348,-0.1347,-0.1347,-0.1335,0,-0.1467,-0.1449,-0.1443,-0.1428,-0.1419,-0.1415,-0.1407,-0.1398,-0.1393,-0.1384,-0.1378,-0.1368,-0.1369,-0.1365,-0.1358,-0.1351,-0.1344,-0.1352,-0.1339,-0.1338,-0.1341,-0.133,-0.133,-0.1319,-0.1333,-0.1333,-0.1333,0,-0.1452,-0.1443,-0.1427,-0.1416,-0.1412,-0.1404,-0.1394,-0.1385,-0.1376,-0.1372,-0.1365,-0.1361,-0.135,-0.1353,-0.1338,-0.1344,-0.1338,-0.1334,-0.1333,-0.1331,-0.1335,-0.1327,-0.1315,-0.1313,-0.133,-0.1331,-0.1331,0,-0.1448,-0.1432,-0.142,-0.1415,-0.1402,-0.1396,-0.1391,-0.1381,-0.1375,-0.1365,-0.1361,-0.1351,-0.1345,-0.1336,-0.133,-0.1333,-0.1315,-0.1318,-0.1312,-0.1312,-0.1308,-0.1308,-0.1294,-0.1305,-0.1305,-0.1305,-0.1305,0,-0.1437,-0.1427,-0.1418,-0.141,-0.1399,-0.1393,-0.1382,-0.1376,-0.1368,-0.1359,-0.1356,-0.1348,-0.134,-0.1331,-0.1326,-0.1314,-0.1311,-0.1308,-0.1307,-0.1308,-0.1308,-0.1303,-0.1304,-0.1305,-0.1305,-0.1305,-0.1305,0,-0.143,-0.1423,-0.141,-0.1399,-0.1396,-0.1388,-0.1378,-0.1371,-0.1365,-0.1354,-0.1351,-0.1342,-0.1331,-0.1324,-0.1311,-0.1307,-0.1294,-0.1293,-0.1297,-0.1296,-0.129,-0.129,-0.1272,-0.1269,-0.1283,-0.1283,-0.1283,0,-0.1423,-0.1415,-0.1403,-0.1397,-0.1391,-0.1382,-0.1375,-0.1369,-0.1362,-0.135,-0.1344,-0.1333,-0.1324,-0.1306,-0.1298,-0.1288,-0.1286,-0.1281,-0.1285,-0.1286,-0.1285,-0.1285,-0.1284,-0.128,-0.1279,-0.1279,-0.1279,0,-0.1411,-0.1408,-0.1398,-0.1388,-0.138,-0.1371,-0.1363,-0.1358,-0.135,-0.1343,-0.1331,-0.1324,-0.131,-0.1299,-0.1287,-0.1281,-0.1279,-0.1278,-0.1276,-0.1277,-0.1279,-0.1277,-0.1294,-0.1278,-0.1279,-0.1279,-0.1279,-0.1279,-0.1403,-0.1396,-0.1386,-0.1376,-0.1368,-0.136,-0.1353,-0.1346,-0.1337,-0.1325,-0.1322,-0.131,-0.13,-0.1285,-0.1278,-0.1269,-0.1269,-0.1266,-0.1265,-0.1265,-0.1264,-0.1281,-0.1267,-0.1267,-0.1267,-0.1267,-0.1267,0,-0.139,-0.1384,-0.1374,-0.1362,-0.1354,-0.1353,-0.1343,-0.1336,-0.1326,-0.1317,-0.1308,-0.1295,-0.1284,-0.1275,-0.1264,-0.1258,-0.1256,-0.1255,-0.1255,-0.1253,-0.1264,-0.1267,-0.1256,-0.1256,-0.1256,-0.1256,-0.1256,-0.1256,-0.1382,-0.137,-0.1366,-0.135,-0.1344,-0.1332,-0.1326,-0.1319,-0.1312,-0.1297,-0.1288,-0.1283,-0.1274,-0.1262,-0.1252,-0.125,-0.1245,-0.1244,-0.1241,-0.1252,-0.1253,-0.1254,-0.1256,-0.1243,-0.1243,-0.1231,-0.1231,-0.1231]}]]